{"data":{"norad_id":64119,"intl_designator":"2025-110Z","name":"STARLINK-34160","alt_names":[],"object_type":"PAYLOAD","status":"ACTIVE","operator":null,"country":"US","launch_date":"2025-05-23","launch_site_code":"AFWTR","launch_vehicle":null,"mission":null,"orbit_class":"UNKNOWN","rcs_meters":null,"size_class":null,"mass_kg":null,"dimensions":null,"purposes":["comms"],"wikipedia_slug":null,"has_3d_model":false,"image_url":null,"decayed_at":null,"tle_current":{"epoch":"2026-09-20T01:47:38.838912Z","epoch_age_seconds":177255,"freshness":"STALE","line1":"1 64119U 25110Z   26263.07475508  .00016097  00000+0  48647-3 0  9999","line2":"2 64119  53.1594 196.0490 0001507  95.8469 264.2705 15.34403508 75756","mean_motion":15.34403508,"eccentricity":0.0001507,"inclination_deg":53.1594,"raan_deg":196.049,"arg_perigee_deg":95.8469,"mean_anomaly_deg":264.2705,"bstar":0.00048647,"rev_number":7575,"period_min":93.847543523734,"perigee_km":461.66190065877,"apogee_km":463.72372676462,"semimajor_km":6840.8298137117,"source":"CELESTRAK","updated_at":"2026-09-21T09:00:35.231458Z"}}}